SL-14 DEB, 45313

Orbit data source: Space-Track

SL-14 DEB, 45313 is space debris in LEO originally from a launch on Thu, 15 Aug 1991 UTC launched from the Plesetsk Missile And Space Complex (PKMTR). Debris objects in space refer to the collection of defunct objects orbiting the Earth. Examples of debris include non-operational satellites, rocket bodies, and fragments generated from explosions, collisions, or faulty payload assembly.

Loading next visibility...
Identifier
45313, 1991-056BB
Orbit
LEO
Country
Flag of CISCIS
Related business
Manufacturer
Unknown
Mission
Spacecraft
Bus & Motor
Unknown
Mass
Unknown
Launch date (UTC)
1991-08-15 (34 years ago)
Launch vehicle
Unknown
Launch site
Plesetsk Missile And Space Complex (PKMTR)
Object type
Payload
Rocket body
Debris
Shape & HBR
Unknown shape, 0.1 m
Radar Cross Section
Small (<0.1 m²)

Expand to show TLE details & history
Last TLE update: 20 hours ago

TLE from 20 hours ago
0 SL-14 DEB
1 45313U 91056BB  25287.35244899  .00002033  00000-0  33981-2 0  9999
2 45313  82.5740 256.9441 0101192  87.0950 274.1762 13.43737018275569
Epoch: 2025-10-14T08:27Z
TLE epoch observation values (Epoch: 2025-10-14T08:27:31.592Z)
Latitude
-0.00013°
Longitude
106.92034°
Altitude
1,093.491 km
Speed
7.308 km/s
True Right ascension
17h 07m 46s
True Declination
0° 00' 00"
Sunlit
Object was in daylight at epoch
Visualization orbit readout
Latitude
Unknown
Longitude
Unknown
Altitude
Unknown
Speed
Unknown
Apparent Right ascension
Unknown
Apparent Declination
Unknown
Sunlit
N/A
Visualization observer readout
Local Sidereal Time
23:24:21
Azimuth
Unknown
Elevation
Unknown
Doppler factor
Unknown
Orbital elements
Apogee altitude
1,168.195 km
Perigee altitude
1,016.999 km
Semi-major axis
7,470.734 km
Eccentricity
0.01012
Inclination
82.574°
RAAN
256.9441°
Arg. of periapsis
87.095°
True anomaly
273.01872°
Mean anomaly
274.1762°
Eccentric anomaly
273.59756°
Mean motion
3.36123 °/min
Orbital period
107.1 mins
BSTAR
0.0033981
Loading maneuver chart data...
Computing Atmospheric mass density...
Loading historical data...
Loading historical data...
Loading historical data...
Loading historical data...
Loading historical data...
Loading historical data...
Loading historical data...

Documentation

Showing up to 5 results
|